This demonstration page uses our WeatherBlox Daily Observations layout. Learn more.

Left ArrowRight Arrow

39.51506, -84.39828

Hourly Observations for February 28, 2018

Temp ( °F °C ) Dew Point ( °F °C ) Humidity (%) Winds ( mph kmh ) Pressure ( in mb ) Visibility ( mi km ) Precip ( " mm )
12:15 am 00:15 Clear 44 6.8 39 4.1 83 83 Calm 30.06 1018 10 16 0.00 0.00
12:35 am 00:35 Clear 46 7.5 37 3 73 73 Calm 30.03 1017 10 16 0.00 0.00
12:55 am 00:55 Clear 44 6.7 39 3.9 83 83 Calm 30.03 1017 10 16 0.00 0.00
1:15 am 01:15 Clear 45 7.1 39 4 81 81 Calm 30.03 1017 10 16 0.00 0.00
1:35 am 01:35 Clear 44 6.4 38 3.6 82 82 Calm 30.03 1017 10 16 0.00 0.00
1:55 am 01:55 Clear 44 6.5 38 3.6 82 82 Calm 30.03 1017 10 16 0.00 0.00
2:15 am 02:15 Clear 44 6.5 38 3.3 80 80 Calm 30.03 1017 10 16 0.00 0.00
2:35 am 02:35 Clear 44 6.7 38 3.2 79 79 Calm 30.03 1017 10 16 0.00 0.00
2:55 am 02:55 Clear 43 6 38 3.2 82 82 Calm 30.03 1017 10 16 0.00 0.00
3:15 am 03:15 Clear 44 6.5 38 3.3 80 80 Calm 30.00 1016 10 16 0.00 0.00
3:35 am 03:35 Clear 43 6 38 3.4 84 84 Calm 30.00 1016 10 16 0.00 0.00
3:55 am 03:55 Clear 42 5.5 38 3.5 87 87 Calm 30.00 1016 10 16 0.00 0.00
4:15 am 04:15 Clear 43 6.1 39 3.9 86 86 SSW 6 9 30.00 1016 10 16 0.00 0.00
4:35 am 04:35 Clear 44 6.8 38 3.1 78 78 SSW 7 11 30.00 1016 10 16 0.00 0.00
4:55 am 04:55 Clear 50 9.8 37 2.7 62 62 S 9 15 30.00 1016 10 16 0.00 0.00
5:15 am 05:15 Clear 50 10.2 37 2.5 59 59 SSW 8 13 30.00 1016 10 16 0.00 0.00
5:35 am 05:35 Clear 50 9.9 36 2.4 60 60 SSW 9 15 30.00 1016 10 16 0.00 0.00
5:55 am 05:55 Clear 46 8 36 2.1 67 67 SSW 7 11 30.00 1016 10 16 0.00 0.00
6:15 am 06:15 Clear 45 7.4 37 2.6 72 72 SW 5 7 30.00 1016 10 16 0.00 0.00
6:35 am 06:35 Clear 46 7.8 37 2.7 70 70 SW 5 7 30.00 1016 10 16 0.00 0.00
6:55 am 06:55 Clear 47 8.4 37 2.7 68 68 S 5 7 30.00 1016 10 16 0.00 0.00
7:15 am 07:15 Sunny 45 7.4 37 2.6 72 72 SW 6 9 30.00 1016 10 16 0.00 0.00
7:35 am 07:35 Sunny 48 9 39 3.7 70 70 SSW 8 13 30.00 1016 10 16 0.00 0.00
7:55 am 07:55 Partly Cloudy 51 10.7 40 4.2 64 64 SSW 10 17 30.00 1016 10 16 0.00 0.00
8:15 am 08:15 Mostly Cloudy 54 12.1 40 4.4 60 60 S 10 17 29.97 1015 10 16 0.00 0.00
8:35 am 08:35 Sunny 55 12.5 41 4.9 60 60 S 9 15 29.97 1015 10 16 0.00 0.00
8:55 am 08:55 Sunny 55 13 41 5.1 59 59 SSW 12 19 29.97 1015 10 16 0.00 0.00
9:15 am 09:15 Sunny 56 13.6 42 5.5 58 58 S 9 15 29.97 1015 10 16 0.00 0.00
9:35 am 09:35 Sunny 57 14 43 6.2 60 60 SSW 9 15 29.97 1015 10 16 0.00 0.00
9:55 am 09:55 Sunny 57 13.7 44 6.4 62 62 SW 10 17 30.00 1016 10 16 0.00 0.00
10:15 am 10:15 Sunny 57 14 44 6.5 61 61 SSW 17 28 30.00 1016 10 16 0.00 0.00
10:35 am 10:35 Sunny 57 14 44 6.6 61 61 SSW 17 28 29.97 1015 N/A 0.00 0.00
10:55 am 10:55 Sunny 59 15 45 7.4 61 61 S 15 24 29.94 1014 N/A 0.00 0.00
11:15 am 11:15 Sunny 58 14.7 45 7.4 62 62 S 15 24 29.97 1015 10 16 0.00 0.00
11:35 am 11:35 undefined 59 15 47 8.1 64 64 S 16 26 29.91 1013 N/A 0.00 0.00
11:55 am 11:55 Cloudy 58 14.6 47 8.2 66 66 SSW 12 19 29.94 1014 10 16 0.00 0.00
12:15 pm 12:15 Cloudy 58 14.5 47 8.6 68 68 SSW 10 17 29.94 1014 10 16 0.00 0.00
12:35 pm 12:35 Cloudy 58 14.3 48 8.9 70 70 SSW 15 24 29.94 1014 10 16 0.00 0.00
12:55 pm 12:55 Cloudy 57 13.9 48 9 73 73 SSW 13 20 29.94 1014 10 16 0.00 0.00
1:15 pm 13:15 Cloudy 57 13.7 48 9.1 74 74 SSW 12 19 29.94 1014 10 16 0.00 0.00
1:35 pm 13:35 Cloudy 56 13.3 48 9.1 76 76 SSW 10 17 29.94 1014 10 16 0.00 0.00
1:55 pm 13:55 Cloudy 56 13.3 49 9.4 77 77 SSW 9 15 29.91 1013 10 16 0.00 0.00
2:15 pm 14:15 Cloudy 56 13.1 49 9.5 79 79 S 15 24 29.91 1013 10 16 0.00 0.00
2:35 pm 14:35 Cloudy 56 13.4 49 9.5 77 77 SSW 10 17 29.91 1013 10 16 0.00 0.00
2:55 pm 14:55 Cloudy 56 13.6 49 9.4 76 76 SSW 12 19 29.91 1013 10 16 0.00 0.00
3:15 pm 15:15 Cloudy 55 13 49 9.6 80 80 SW 13 20 29.91 1013 10 16 0.00 0.00
3:35 pm 15:35 Cloudy 55 12.7 50 9.9 83 83 SSW 10 17 29.91 1013 10 16 0.00 0.00
3:55 pm 15:55 Cloudy 55 12.8 50 10 83 83 S 7 11 29.88 1012 10 16 0.00 0.00
4:15 pm 16:15 Cloudy 55 12.6 50 10 84 84 SSW 10 17 29.91 1013 10 16 0.00 0.00
4:35 pm 16:35 Cloudy with Mist and Fog 54 12.3 51 10.3 88 88 S 7 11 29.88 1012 5 8 0.00 0.00
4:55 pm 16:55 Cloudy with Light Rain 54 12.4 50 10.1 86 86 S 7 11 29.88 1012 10 16 0.00 0.00
5:15 pm 17:15 Cloudy 55 12.5 50 10.2 86 86 SSW 7 11 29.88 1012 10 16 0.00 0.00
5:35 pm 17:35 Cloudy 54 12.3 50 10.1 87 87 S 10 17 29.88 1012 10 16 0.00 0.00
5:55 pm 17:55 Cloudy 54 12.2 50 10.1 87 87 SSW 9 15 29.88 1012 10 16 0.00 0.00
6:15 pm 18:15 Cloudy 54 12 50 10.1 88 88 S 8 13 29.88 1012 10 16 0.00 0.00
6:35 pm 18:35 Cloudy 54 12 50 10.1 88 88 SSW 6 9 29.88 1012 10 16 0.00 0.00
7:15 pm 19:15 Cloudy 53 11.8 50 10.1 89 89 SSE 7 11 29.88 1012 10 16 0.00 0.00
7:35 pm 19:35 Cloudy with Light Rain 53 11.6 50 10.2 91 91 SE 6 9 29.88 1012 10 16 0.00 0.00
7:55 pm 19:55 Cloudy with Light Rain 52 11.3 50 10.2 93 93 SE 3 6 29.85 1011 10 16 0.01 0.25
8:15 pm 20:15 Cloudy with Rain 52 11.2 50 10.2 94 94 Calm 29.85 1011 10 16 0.00 0.00
8:35 pm 20:35 Cloudy with Light Rain 52 11.2 50 10.2 94 94 E 3 6 29.88 1012 10 16 0.00 0.00
8:55 pm 20:55 Cloudy with Light Rain 52 11 51 10.3 95 95 ENE 3 6 29.85 1011 7 11 0.03 0.76
9:15 pm 21:15 Cloudy with Light Rain 51 10.8 51 10.4 97 97 E 3 6 29.85 1011 4 6 0.06 1.52
9:35 pm 21:35 Cloudy with Light Rain 52 10.9 51 10.3 96 96 E 5 7 29.85 1011 4 6 0.07 1.78
9:55 pm 21:55 Cloudy with Light Rain 51 10.8 50 10.2 96 96 E 3 6 29.85 1011 4 6 0.08 2.03
10:15 pm 22:15 Cloudy with Rain 51 10.7 51 10.3 97 97 ESE 5 7 29.85 1011 2 3 0.03 0.76
10:35 pm 22:35 Cloudy with Light Rain 51 10.6 50 10.1 97 97 ENE 5 7 29.85 1011 4 6 0.05 1.27
10:55 pm 22:55 Cloudy with Rain 51 10.5 50 10.1 97 97 E 6 9 29.85 1011 2 3 0.13 3.30
11:15 pm 23:15 Cloudy with Light Rain 51 10.5 50 10.1 97 97 ENE 3 6 29.85 1011 2 3 0.01 0.25
11:30 pm 23:30 Cloudy with Light Rain 51 10.4 50 10.2 99 99 E 3 6 29.85 1011 2 3 0.02 0.51
11:55 pm 23:55 Cloudy with Light Rain 51 10.4 50 10.1 98 98 ENE 3 6 29.85 1011 2 3 0.02 0.51

Powered by AerisWeather